Location: Risskov
(56.1972°N, 10.2480°E)
Time: 23:26:31
(UTC+00:00)

SL-8 Rocket - Pass Details

Date: 05 July 2020
Orbit: 957 x 990 km, 82.9° (Epoch: 03 August)

Event Time Altitude Azimuth Distance (km) Brightness Sun altitude
Exits shadow 23:30:59 12° 205° (SSW) 2,586 5.7 -11.1°
Maximum altitude 23:36:48 64° 286° (WNW) 1,063 4.3 -11.1°
Drops below altitude 10° 23:42:57 10° 8° (N) 2,704 7.9 -11.0°
Sets 23:45:30 0° 12° (NNE) 3,654 9.1 -11.0°
